DW9080 Weather Reports


time (UTC)temp
C
wind
direction
speed
KPH
gust
KPH
rain 1hr
cm
rain 24hr
cm
rain mn
cm
humidity
%
barometer
mb
20260904172543 22 342 0.0 0.0 0.00 0.33 0.00 69 1009.3
20260904172039 22 239 0.0 0.0 0.00 0.33 0.00 71 1009.4
20260904171540 22 328 0.0 0.0 0.00 0.33 0.00 68 1009.4
20260904171038 22 257 0.0 0.0 0.00 0.33 0.00 72 1009.5
20260904170537 22 257 0.0 0.0 0.00 0.33 0.00 72 1009.5
20260904170044 21 250 0.0 1.6 0.00 0.33 0.00 73 1009.6
20260904165533 21 248 0.0 1.6 0.00 0.33 0.00 74 1009.7
20260904165032 21 262 0.0 1.6 0.00 0.33 0.00 75 1009.8
20260904164518 21 256 0.0 1.6 0.00 0.33 0.00 74 1009.8
20260904164017 21 264 0.0 0.0 0.00 0.33 0.00 75 1009.8
20260904163516 20 264 0.0 0.0 0.00 0.33 0.00 76 1009.9
20260904163015 20 264 0.0 0.0 0.00 0.33 0.00 77 1010.0
20260904162517 20 264 0.0 0.0 0.00 0.33 0.00 76 1010.1
20260904162012 19 264 0.0 0.0 0.00 0.33 0.00 78 1010.2
20260904161511 19 266 0.0 0.0 0.00 0.33 0.00 79 1010.3
20260904161011 18 260 0.0 1.6 0.00 0.33 0.00 81 1010.3
20260904160508 18 236 0.0 1.6 0.00 0.33 0.00 80 1010.4
20260904160007 18 255 0.0 0.0 0.00 0.33 0.00 82 1010.4
20260904155505 18 248 0.0 0.0 0.00 0.33 0.00 84 1010.4
20260904155004 18 285 0.0 0.0 0.00 0.33 0.33 86 1010.5
20260904154503 18 285 0.0 0.0 0.00 0.33 0.33 85 1010.5
20260904154004 18 288 0.0 0.0 0.00 0.33 0.33 87 1010.5
20260904153505 17 256 0.0 1.6 0.00 0.33 0.33 89 1010.5
20260904153003 17 253 0.0 1.6 0.00 0.33 0.33 87 1010.7
20260904152504 17 250 0.0 1.6 0.00 0.33 0.33 88 1010.6
20260904152003 17 257 0.0 1.6 0.00 0.33 0.33 88 1010.6
20260904151503 17 250 0.0 1.6 0.00 0.33 0.33 88 1010.5
20260904151003 17 254 0.0 0.0 0.00 0.33 0.33 88 1010.5
20260904150503 17 255 0.0 1.6 0.00 0.33 0.33 88 1010.5
20260904150008 17 250 0.0 1.6 0.00 0.33 0.33 88 1010.5
20260904145503 16 259 0.0 0.0 0.00 0.33 0.33 89 1010.4
20260904145002 16 256 0.0 0.0 0.00 0.33 0.33 89 1010.4
20260904144558 16 256 0.0 0.0 0.00 0.33 0.33 90 1010.3
20260904144044 16 256 0.0 0.0 0.00 0.33 0.33 89 1010.2
20260904143545 16 256 0.0 0.0 0.00 0.33 0.33 90 1010.2
20260904143051 16 253 0.0 0.0 0.00 0.33 0.33 89 1010.1
20260904142544 16 72 0.0 0.0 0.00 0.33 0.33 89 1010.1
20260904142045 16 72 0.0 0.0 0.00 0.33 0.33 89 1010.2
20260904141534 16 72 0.0 0.0 0.00 0.33 0.33 89 1010.1
20260904141026 16 72 0.0 0.0 0.00 0.33 0.33 91 1010.1
20260904140526 16 72 0.0 0.0 0.00 0.33 0.33 91 1010.0
20260904140045 15 72 0.0 0.0 0.00 0.33 0.33 91 1009.9
20260904135526 15 72 0.0 0.0 0.00 0.33 0.33 93 1009.9
20260904135026 15 72 0.0 0.0 0.00 0.33 0.33 95 1009.8
20260904134508 15 72 0.0 0.0 0.00 0.33 0.33 97 1009.8
20260904134008 13 72 0.0 0.0 0.00 0.33 0.33 97 1009.9
20260904133508 13 72 0.0 0.0 0.00 0.33 0.33 97 1009.8
20260904133011 13 72 0.0 0.0 0.00 0.33 0.33 96 1009.8
20260904132510 13 72 0.0 0.0 0.00 0.33 0.33 95 1009.8
20260904132010 -17 0.0 0.0 0.00 0.33 0.33 1009.7
20260904131546 -17 0.0 0.0 0.00 0.33 0.33 1009.6
20260904131046 -17 0.0 0.0 0.00 0.33 0.33 1009.5
20260904130544 -17 0.0 0.0 0.00 0.33 0.33 1009.4
20260904130044 -17 0.0 0.0 0.00 0.33 0.33 1009.4
20260904125541 -17 0.0 0.0 0.00 0.33 0.33 1009.3
20260904125040 -17 0.0 0.0 0.00 0.33 0.33 1009.2
20260904124522 -17 0.0 0.0 0.00 0.33 0.33 1009.2
20260904124019 -17 0.0 0.0 0.00 0.33 0.33 1009.3
20260904123518 -17 0.0 0.0 0.00 0.33 0.33 1009.3
20260904123017 -17 0.0 0.0 0.00 0.33 0.33 1009.3
20260904122519 -17 0.0 0.0 0.00 0.33 0.33 1009.3
20260904122018 -17 0.0 0.0 0.00 0.33 0.33 1009.2
20260904121617 -17 0.0 0.0 0.00 0.33 0.33 1009.3
20260904121058 -17 0.0 0.0 0.00 0.33 0.33 1009.2
20260904120558 -17 0.0 0.0 0.00 0.33 0.33 1009.2
20260904120107 -17 0.0 0.0 0.00 0.33 0.33 1009.2
20260904115558 -17 0.0 0.0 0.00 0.33 0.33 1009.2
20260904115100 -17 0.0 0.0 0.00 0.33 0.33 1009.3
20260904114601 -17 0.0 0.0 0.00 0.33 0.33 1009.3
20260904114040 -17 0.0 0.0 0.00 0.33 0.33 1009.1
20260904113540 -17 0.0 0.0 0.00 0.33 0.33 1009.2
20260904113038 -17 0.0 0.0 0.00 0.33 0.33 1009.3
20260904112536 -17 0.0 0.0 0.00 0.33 0.33 1009.4
20260904112035 -17 0.0 0.0 0.00 0.33 0.33 1009.2
20260904111534 -17 0.0 0.0 0.00 0.33 0.33 1009.2
20260904111016 -17 0.0 0.0 0.00 0.33 0.33 1009.1
20260904110513 -17 0.0 0.0 0.00 0.33 0.33 1009.2
20260904110012 -17 0.0 0.0 0.00 0.33 0.33 1009.2
20260904105512 -17 0.0 0.0 0.00 0.33 0.33 1009.1
20260904105009 -17 0.0 0.0 0.00 0.33 0.33 1009.0
20260904104508 -17 0.0 0.0 0.00 0.33 0.33 1008.9
20260904104049 -17 0.0 0.0 0.00 0.33 0.33 1008.9
20260904103548 -17 0.0 0.0 0.00 0.33 0.33 1009.1
20260904103046 -17 0.0 0.0 0.00 0.33 0.33 1009.0
20260904102545 -17 0.0 0.0 0.00 0.33 0.33 1008.9
20260904102048 -17 0.0 0.0 0.00 0.33 0.33 1008.8
20260904101542 -17 0.0 0.0 0.00 0.33 0.33 1008.8
20260904101023 -17 0.0 0.0 0.00 0.33 0.33 1008.9
20260904100523 -17 0.0 0.0 0.00 0.33 0.33 1008.9
20260904100020 -17 0.0 0.0 0.00 0.33 0.33 1008.9
20260904095519 -17 0.0 0.0 0.00 0.33 0.33 1009.0
20260904095018 -17 0.0 0.0 0.00 0.33 0.33 1009.1
20260904094531 13 101 0.0 1.6 0.00 0.33 0.33 96 1009.0
20260904094058 13 101 0.0 1.6 0.00 0.33 0.33 96 1009.1
20260904093602 13 101 0.0 1.6 0.00 0.33 0.33 96 1008.9
20260904093058 13 50 0.0 1.6 0.00 0.33 0.33 97 1008.9
20260904092600 13 97 0.0 0.0 0.00 0.33 0.33 96 1008.9
20260904092057 13 94 0.0 0.0 0.00 0.33 0.33 96 1008.9
20260904091557 14 61 0.0 3.2 0.00 0.33 0.33 96 1009.0
20260904091038 14 42 0.0 3.2 0.00 0.33 0.33 96 1009.0
20260904090538 14 59 0.0 1.6 0.00 0.33 0.33 96 1009.0
20260904090039 14 57 0.0 0.0 0.00 0.33 0.33 96 1009.0
20260904085538 14 73 0.0 0.0 0.00 0.33 0.33 96 1009.0
20260904085039 14 73 0.0 0.0 0.00 0.33 0.33 96 1009.0
20260904084538 14 74 0.0 0.0 0.00 0.33 0.33 96 1008.9
20260904084020 14 73 0.0 0.0 0.00 0.33 0.33 96 1008.9
20260904083519 14 72 0.0 0.0 0.00 0.33 0.33 96 1008.9
20260904083019 14 110 0.0 0.0 0.00 0.33 0.33 96 1009.0
20260904082519 14 110 0.0 0.0 0.00 0.33 0.33 96 1009.0
20260904082019 14 110 0.0 0.0 0.00 0.33 0.33 96 1008.9
20260904081519 14 110 0.0 0.0 0.00 0.33 0.33 96 1008.9
20260904081001 14 111 0.0 0.0 0.00 0.33 0.33 97 1009.0
20260904080600 14 111 0.0 0.0 0.00 0.33 0.33 97 1009.0
20260904080501 14 111 0.0 0.0 0.00 0.33 0.33 97 1009.0
20260904080106 14 60 0.0 0.0 0.00 0.33 0.33 96 1008.9
20260904075601 15 60 0.0 0.0 0.00 0.33 0.33 97 1008.8
20260904075059 14 70 0.0 0.0 0.00 0.33 0.33 96 1008.8
20260904074607 14 48 0.0 0.0 0.00 0.33 0.33 96 1008.8
20260904074042 14 48 0.0 0.0 0.00 0.33 0.33 96 1009.0
20260904073542 14 48 0.0 0.0 0.00 0.33 0.33 96 1009.0
20260904073051 15 48 0.0 0.0 0.00 0.33 0.33 96 1009.1
20260904072542 15 48 0.0 0.0 0.00 0.33 0.33 96 1009.3
20260904072042 15 49 0.0 1.6 0.00 0.33 0.33 97 1009.2
20260904071544 15 70 0.0 1.6 0.00 0.33 0.33 97 1009.2
20260904071026 14 256 0.0 1.6 0.00 0.33 0.33 96 1009.0
20260904070523 14 259 0.0 1.6 0.00 0.33 0.33 96 1008.7
20260904070024 15 243 0.0 1.6 0.00 0.33 0.33 96 1008.8
20260904065525 15 179 0.0 1.6 0.00 0.33 0.33 96 1009.0
20260904065022 15 243 0.0 0.0 0.00 0.33 0.33 96 1009.2
20260904064524 15 260 0.0 0.0 0.00 0.33 0.33 95 1009.4
20260904064003 15 249 0.0 0.0 0.00 0.33 0.33 95 1009.5
20260904063502 15 243 0.0 0.0 0.03 0.33 0.33 95 1009.5
20260904063002 15 278 0.0 0.0 0.03 0.33 0.33 94 1009.6
20260904062502 15 314 0.0 0.0 0.03 0.33 0.33 94 1009.5
20260904062001 15 78 0.0 0.0 0.05 0.33 0.33 93 1009.6
20260904061600 15 77 0.0 0.0 0.05 0.33 0.33 92 1009.7
20260904061042 15 77 0.0 0.0 0.05 0.33 0.33 91 1010.1
20260904060543 15 77 0.0 0.0 0.05 0.33 0.33 90 1010.0
20260904055541 15 77 0.0 0.0 0.05 0.33 0.33 91 1009.9
20260904055044 15 78 0.0 0.0 0.05 0.33 0.33 91 1009.9
20260904054550 16 77 0.0 0.0 0.05 0.33 0.33 90 1010.0
20260904054026 16 70 0.0 0.0 0.05 0.33 0.33 89 1010.2
20260904053521 16 61 0.0 0.0 0.05 0.30 0.30 89 1010.3
20260904053022 16 61 0.0 1.6 0.05 0.30 0.30 87 1010.4
20260904052527 16 74 0.0 1.6 0.05 0.30 0.30 85 1010.6
20260904052019 16 77 0.0 1.6 0.03 0.28 0.28 84 1010.7
20260904051519 17 49 0.0 3.2 0.00 0.25 0.25 81 1010.7
20260904051001 17 64 0.0 9.7 0.00 0.25 0.25 78 1010.6
20260904050502 17 169 0.0 9.7 0.00 0.25 0.25 76 1010.5
20260904050001 17 161 0.0 3.2 0.00 0.25 0.25 78 1010.4
20260904045501 17 108 0.0 8.0 0.00 0.25 0.25 77 1010.3
20260904045004 17 37 0.0 9.7 0.00 0.25 0.25 78 1010.0
20260904044501 17 59 1.6 9.7 0.00 0.25 0.25 79 1009.9
20260904044100 17 61 0.0 9.7 0.00 0.25 0.25 79 1009.9
20260904043547 17 165 1.6 9.7 0.00 0.25 0.25 80 1009.9
20260904043043 17 68 1.6 8.0 0.00 0.25 0.25 80 1009.9
20260904042543 17 56 1.6 9.7 0.00 0.25 0.25 81 1009.8
20260904042043 17 72 1.6 14.5 0.00 0.25 0.25 80 1009.6
20260904041544 17 127 1.6 19.3 0.00 0.25 0.25 81 1009.6
20260904041042 17 37 4.8 19.3 0.00 0.25 0.25 81 1009.4
20260904040524 17 48 3.2 14.5 0.00 0.25 0.25 85 1009.3
20260904040038 17 89 0.0 3.2 0.03 0.25 0.25 87 1009.3
20260904035525 17 66 0.0 3.2 0.05 0.25 0.25 87 1009.1
20260904035028 17 146 0.0 1.6 0.05 0.25 0.25 87 1008.7
20260904034524 17 91 0.0 3.2 0.05 0.25 0.25 88 1008.6
20260904034024 17 61 0.0 4.8 0.05 0.25 0.25 88 1008.5
20260904033506 17 70 0.0 6.4 0.05 0.25 0.25 89 1008.5
20260904033006 17 85 0.0 6.4 0.05 0.25 0.25 89 1008.5
20260904032505 17 76 0.0 4.8 0.05 0.25 0.25 89 1008.4
20260904032005 17 107 0.0 6.4 0.05 0.25 0.25 89 1008.4
20260904031505 17 56 0.0 6.4 0.05 0.25 0.25 88 1008.6
20260904031005 18 59 0.0 4.8 0.05 0.25 0.25 87 1008.6
20260904030547 18 67 0.0 4.8 0.05 0.25 0.25 87 1008.7
20260904030047 18 70 0.0 1.6 0.05 0.23 0.23 85 1008.7
20260904025551 19 114 0.0 0.0 0.03 0.23 0.23 83 1008.5
20260904025047 19 114 0.0 0.0 0.00 0.20 0.20 82 1008.4
20260904024553 19 110 0.0 0.0 0.00 0.20 0.20 81 1008.4
20260904024048 19 67 0.0 0.0 0.00 0.20 0.20 79 1008.4
20260904023530 19 67 0.0 0.0 0.00 0.20 0.20 78 1008.3
20260904023036 19 66 0.0 0.0 0.00 0.20 0.20 79 1008.3
20260904022533 19 67 0.0 0.0 0.00 0.20 0.20 78 1008.3
20260904022029 19 66 0.0 0.0 0.00 0.20 0.20 78 1008.5
20260904021543 19 252 0.0 0.0 0.00 0.20 0.20 78 1008.5
20260904021028 19 252 0.0 0.0 0.00 0.20 0.20 77 1008.1
20260904020512 19 247 0.0 1.6 0.00 0.20 0.20 76 1008.0
20260904020012 19 271 0.0 1.6 0.00 0.20 0.20 76 1007.8
20260904015510 19 259 0.0 1.6 0.00 0.20 0.20 76 1007.8
20260904015014 19 236 0.0 1.6 0.00 0.20 0.20 76 1007.7
20260904014511 19 239 0.0 1.6 0.00 0.20 0.20 76 1007.6
20260904014011 19 238 0.0 1.6 0.00 0.20 0.20 77 1007.5
20260904013601 19 236 0.0 0.0 0.00 0.20 0.20 76 1007.5
20260904013122 19 236 0.0 1.6 0.00 0.20 0.20 75 1007.5
20260904012602 20 236 0.0 1.6 0.00 0.20 0.20 74 1007.5
20260904012058 20 236 0.0 0.0 0.00 0.20 0.20 74 1007.4
20260904011557 20 236 0.0 0.0 0.00 0.20 0.20 73 1007.3
20260904011058 20 236 0.0 0.0 0.00 0.20 0.20 74 1007.3
20260904010558 20 236 0.0 0.0 0.00 0.20 0.20 74 1007.1
20260904010057 20 236 0.0 0.0 0.00 0.20 0.20 72 1007.0
20260904005556 20 236 0.0 0.0 0.00 0.20 0.20 73 1006.9
20260904005056 20 236 0.0 0.0 0.00 0.20 0.20 73 1006.8
20260904004557 20 236 0.0 0.0 0.00 0.20 0.20 72 1006.7
20260904004057 20 236 0.0 0.0 0.00 0.20 0.20 73 1006.5
20260904003557 20 236 0.0 0.0 0.00 0.20 0.20 73 1006.4
20260904003056 21 236 0.0 0.0 0.00 0.20 0.20 73 1006.2
20260904002556 21 233 0.0 0.0 0.00 0.20 0.20 73 1006.1
20260904002056 21 297 0.0 0.0 0.00 0.20 0.20 71 1006.1
20260904001607 21 284 0.0 0.0 0.00 0.20 0.20 71 1006.1
20260904001055 21 346 0.0 0.0 0.00 0.20 0.20 69 1006.2
20260904000558 21 303 0.0 0.0 0.00 0.20 0.20 68 1006.1
20260904000056 22 316 0.0 0.0 0.00 0.20 0.20 67 1006.1
20260903235554 22 51 0.0 0.0 0.00 0.20 0.20 65 1006.1
20260903235054 23 49 0.0 0.0 0.00 0.20 0.20 64 1006.0
20260903234556 23 271 0.0 0.0 0.00 0.20 0.20 65 1005.9
20260903234054 23 271 0.0 0.0 0.00 0.20 0.20 64 1005.9
20260903233538 23 269 0.0 0.0 0.00 0.20 0.20 68 1005.8
20260903233042 22 270 0.0 0.0 0.00 0.20 0.20 69 1005.8
20260903232536 22 271 0.0 0.0 0.00 0.20 0.20 77 1005.8
20260903232036 21 271 0.0 0.0 0.00 0.20 0.20 91 1005.8
20260903231540 20 338 0.0 0.0 0.00 0.20 0.20 98 1005.8
20260903231036 20 307 0.0 0.0 0.00 0.20 0.20 98 1005.8
20260903230523 19 316 0.0 0.0 0.00 0.20 0.20 97 1005.6
20260903230024 19 353 0.0 0.0 0.00 0.20 0.20 98 1005.5
20260903225518 18 5 0.0 0.0 0.00 0.20 0.20 97 1005.5
20260903225019 18 75 0.0 0.0 0.00 0.20 0.20 97 1005.4
20260903224524 18 75 0.0 0.0 0.00 0.20 0.20 98 1005.5
20260903224019 17 75 0.0 0.0 0.03 0.20 0.20 98 1005.5
20260903223558 17 75 0.0 0.0 0.05 0.20 0.20 98 1005.5
20260903223058 18 75 0.0 0.0 0.10 0.20 0.20 98 1005.6
20260903222557 17 75 0.0 0.0 0.18 0.20 0.20 98 1005.7
20260903222057 17 75 0.0 0.0 0.20 0.20 0.20 98 1005.8
20260903221557 17 75 0.0 3.2 0.20 0.20 0.20 98 1005.9
20260903221056 17 138 0.0 3.2 0.20 0.20 0.20 98 1005.9
20260903220540 17 53 0.0 0.0 0.20 0.20 0.20 98 1005.9
20260903220037 17 53 0.0 0.0 0.20 0.20 0.20 98 1006.1
20260903215536 17 53 0.0 0.0 0.20 0.20 0.20 98 1006.0
20260903215038 17 22 0.0 0.0 0.20 0.20 0.20 98 1006.1
20260903214538 16 67 0.0 1.6 0.20 0.20 0.20 97 1006.2
20260903214038 16 67 0.0 1.6 0.18 0.18 0.18 95 1006.3
20260903213518 17 75 0.0 3.2 0.15 0.15 0.15 91 1006.5
20260903213014 18 98 0.0 14.5 0.08 0.08 0.08 79 1006.6
20260903212515 20 39 0.0 14.5 0.03 0.03 0.03 73 1006.6
20260903212015 22 20 0.0 4.8 0.00 0.00 0.00 65 1006.4
20260903211513 22 55 0.0 4.8 0.00 0.00 0.00 59 1006.5
20260903211013 23 233 0.0 1.6 0.00 0.00 0.00 57 1006.5
20260903210616 23 232 0.0 8.0 0.00 0.00 0.00 57 1006.4
20260903210058 23 231 0.0 8.0 0.00 0.00 0.00 55 1006.4
20260903205555 23 246 0.0 0.0 0.00 0.00 0.00 56 1006.4
20260903205055 24 295 0.0 1.6 0.00 0.00 0.00 55 1006.5
20260903204555 24 233 0.0 3.2 0.00 0.00 0.00 54 1006.4
20260903204054 25 250 0.0 3.2 0.00 0.00 0.00 54 1006.4
20260903203554 25 253 0.0 1.6 0.00 0.00 0.00 54 1006.4
20260903203041 25 234 0.0 1.6 0.00 0.00 0.00 56 1006.5
20260903202535 25 239 0.0 14.5 0.00 0.00 0.00 54 1006.6
20260903202034 25 249 4.8 16.1 0.00 0.00 0.00 54 1006.7
20260903201534 25 293 0.0 1.6 0.00 0.00 0.00 53 1006.9
20260903201031 25 285 0.0 1.6 0.00 0.00 0.00 58 1007.1
20260903200529 25 210 0.0 14.5 0.00 0.00 0.00 56 1007.2
20260903200010 25 207 0.0 14.5 0.00 0.00 0.00 58 1007.4
20260903195512 25 259 0.0 11.3 0.00 0.00 0.00 58 1007.5
20260903195013 24 241 0.0 14.5 0.00 0.00 0.00 60 1007.5
20260903194508 24 258 1.6 14.5 0.00 0.00 0.00 59 1007.6
20260903194008 23 241 0.0 1.6 0.00 0.00 0.00 62 1007.6
20260903193505 23 250 0.0 1.6 0.00 0.00 0.00 62 1007.8
20260903193048 23 266 0.0 1.6 0.00 0.00 0.00 63 1007.7
20260903192549 23 229 0.0 1.6 0.00 0.00 0.00 63 1007.8
20260903192048 23 248 0.0 1.6 0.00 0.00 0.00 63 1007.9
20260903191546 24 252 0.0 1.6 0.00 0.00 0.00 59 1008.0
20260903191047 24 258 0.0 1.6 0.00 0.00 0.00 60 1008.1
20260903190544 23 250 0.0 1.6 0.00 0.00 0.00 63 1008.2
20260903190026 23 235 0.0 1.6 0.00 0.00 0.00 65 1008.3
20260903185524 23 263 0.0 1.6 0.00 0.00 0.00 65 1008.4
20260903185024 23 260 0.0 1.6 0.00 0.00 0.00 64 1008.7
20260903184523 23 262 0.0 1.6 0.00 0.00 0.00 61 1008.7
20260903184023 23 240 0.0 1.6 0.00 0.00 0.00 61 1008.8
20260903183522 23 360 0.0 0.0 0.00 0.00 0.00 58 1008.9
20260903183007 23 288 0.0 4.8 0.00 0.00 0.00 61 1009.1
20260903182502 23 27 0.0 3.2 0.00 0.00 0.00 60 1009.2
20260903182101 23 277 0.0 1.6 0.00 0.00 0.00 60 1009.3
20260903181601 23 303 0.0 1.6 0.00 0.00 0.00 60 1009.4
20260903181059 23 259 0.0 1.6 0.00 0.00 0.00 59 1009.7
20260903180559 24 266 0.0 0.0 0.00 0.00 0.00 59 1009.8
20260903180039 24 246 0.0 1.6 0.00 0.00 0.00 61 1009.9
20260903175538 23 170 0.0 1.6 0.00 0.00 0.00 58 1010.1
20260903175037 23 256 0.0 1.6 0.00 0.00 0.00 60 1010.2
20260903174536 23 257 0.0 0.0 0.00 0.00 0.00 60 1010.3
20260903174035 23 255 0.0 0.0 0.00 0.00 0.00 61 1010.4
20260903173534 23 162 0.0 0.0 0.00 0.00 0.00 60 1010.6
20260903173015 23 130 0.0 0.0 0.00 0.00 0.00 61 1010.6